FW3073 Weather Reports


Display with metric or nautical units.
time (UTC)temp
F
wind
direction
speed
MPH
gust
MPH
rain 1hr
in
rain 24hr
in
rain mn
in
humidity
%
barometer
mb
20260509063004 38 252 0.0 4.0 0.00 0.04 0.00 95 1008.4
20260509062003 38 259 0.0 2.0 0.00 0.04 0.00 94 1008.4
20260509061003 38 245 0.0 3.0 0.00 0.04 0.00 94 1008.0
20260509060004 38 226 0.0 2.0 0.00 0.04 0.00 94 1008.0
20260509055003 38 277 0.0 3.0 0.00 0.04 0.00 94 1008.0
20260509054003 39 267 0.0 2.0 0.00 0.04 0.00 93 1007.7
20260509053003 39 262 0.0 2.0 0.00 0.04 0.00 93 1007.7
20260509052003 40 271 1.0 2.0 0.00 0.04 0.00 91 1007.3
20260509051004 40 235 0.0 2.0 0.00 0.04 0.00 92 1007.3
20260509050003 40 271 0.0 1.0 0.00 0.04 0.00 91 1007.3
20260509045003 40 214 0.0 2.0 0.00 0.04 0.00 92 1007.3
20260509044003 40 207 0.0 2.0 0.00 0.04 0.00 92 1007.0
20260509043004 40 213 0.0 1.0 0.00 0.04 0.00 91 1007.0
20260509042004 41 213 0.0 3.0 0.00 0.04 0.00 91 1006.6
20260509041003 41 203 0.0 2.0 0.00 0.04 0.00 92 1006.6
20260509040004 41 212 0.0 1.0 0.00 0.04 0.00 93 1006.6
20260509035003 41 198 0.0 2.0 0.00 0.04 0.00 96 1006.6
20260509034003 40 205 0.0 1.0 0.00 0.04 0.00 98 1006.3
20260509033003 40 209 0.0 1.0 0.00 0.04 0.00 98 1006.3
20260509032003 39 0 0.0 0.0 0.00 0.04 0.00 98 1006.0
20260509031003 38 0 0.0 0.0 0.00 0.04 0.00 98 1006.0
20260509030004 38 0 0.0 0.0 0.00 0.04 0.00 97 1006.0
20260509025003 39 0 0.0 0.0 0.00 0.04 0.04 97 1006.0
20260509024003 39 0 0.0 0.0 0.00 0.04 0.04 97 1006.0
20260509023003 39 0 0.0 0.0 0.00 0.04 0.04 97 1006.0
20260509022003 40 0 0.0 0.0 0.00 0.04 0.04 97 1006.0
20260509021003 40 0 0.0 0.0 0.00 0.04 0.04 97 1006.0
20260509020003 40 221 0.0 1.0 0.00 0.04 0.04 97 1006.0
20260509015003 40 237 0.0 2.0 0.00 0.04 0.04 97 1006.0
20260509014003 40 235 0.0 1.0 0.00 0.04 0.04 97 1006.0
20260509013004 40 223 0.0 1.0 0.00 0.04 0.04 97 1005.6
20260509012003 41 231 0.0 1.0 0.00 0.04 0.04 97 1005.6
20260509011003 40 248 0.0 1.0 0.00 0.04 0.04 97 1005.6
20260509010004 40 0 0.0 0.0 0.00 0.04 0.04 97 1005.3
20260509005003 41 0 0.0 0.0 0.00 0.04 0.04 97 1005.3
20260509004003 41 0 0.0 0.0 0.00 0.04 0.04 97 1004.9
20260509003004 41 0 0.0 0.0 0.00 0.04 0.04 96 1004.9
20260509002003 42 247 0.0 1.0 0.00 0.04 0.04 96 1004.6
20260509001003 42 247 0.0 1.0 0.01 0.04 0.04 96 1004.9
20260509000004 42 0 0.0 0.0 0.02 0.04 0.04 95 1004.3
20260508235003 43 0 0.0 0.0 0.04 0.04 0.04 94 1004.3
20260508234003 44 0 0.0 0.0 0.04 0.04 0.04 94 1003.9
20260508233003 44 247 0.0 1.0 0.04 0.04 0.04 93 1003.9
20260508232004 44 0 0.0 0.0 0.04 0.04 0.04 92 1003.9
20260508231003 45 258 0.0 2.0 0.03 0.03 0.03 90 1003.9
20260508230003 46 283 3.0 9.0 0.02 0.02 0.02 83 1004.3
20260508225003 47 274 2.0 8.0 0.00 0.00 0.00 73 1003.6
20260508224003 47 274 3.0 7.0 0.00 0.00 0.00 72 1003.6
20260508223004 48 295 4.0 8.0 0.00 0.00 0.00 70 1003.6
20260508222003 50 289 3.0 9.0 0.00 0.00 0.00 63 1003.2
20260508221003 51 279 0.0 1.0 0.00 0.00 0.00 63 1002.6
20260508220003 52 52 0.0 2.0 0.00 0.00 0.00 59 1002.2
20260508215003 54 18 0.0 2.0 0.00 0.00 0.00 56 1002.2
20260508214003 53 160 0.0 1.0 0.00 0.00 0.00 59 1002.2
20260508213004 52 85 0.0 3.0 0.00 0.00 0.00 62 1002.2
20260508212003 53 78 2.0 4.0 0.00 0.00 0.00 59 1002.2
20260508211003 53 74 1.0 6.0 0.00 0.00 0.00 61 1001.9
20260508210004 53 58 1.0 4.0 0.00 0.00 0.00 61 1001.9
20260508205003 53 27 2.0 4.0 0.00 0.00 0.00 59 1001.5
20260508204003 54 64 2.0 8.0 0.00 0.00 0.00 61 1001.2
20260508203004 54 68 2.0 8.0 0.00 0.00 0.00 63 1001.5
20260508202003 54 31 2.0 4.0 0.00 0.00 0.00 62 1001.2
20260508201004 54 51 1.0 6.0 0.00 0.00 0.00 65 1001.5
20260508200003 52 60 2.0 9.0 0.00 0.00 0.00 69 1001.2
20260508195004 52 26 2.0 6.0 0.00 0.00 0.00 64 1000.9
20260508194003 52 322 2.0 8.0 0.00 0.00 0.00 56 1000.9
20260508193004 53 327 2.0 7.0 0.00 0.00 0.00 53 1000.9
20260508192004 54 314 3.0 8.0 0.00 0.00 0.00 51 1000.9
20260508191003 55 337 2.0 8.0 0.00 0.00 0.00 48 1000.2
20260508190004 57 304 3.0 6.0 0.00 0.00 0.00 46 1000.2
20260508185003 57 286 2.0 6.0 0.00 0.00 0.00 42 1000.2
20260508184003 56 276 2.0 6.0 0.00 0.00 0.00 44 999.8
20260508183003 56 279 2.0 6.0 0.00 0.00 0.00 48 999.8
20260508182003 56 322 1.0 4.0 0.00 0.00 0.00 44 999.8
20260508181003 56 279 2.0 4.0 0.00 0.00 0.00 44 1000.2
20260508180004 58 348 2.0 4.0 0.00 0.00 0.00 40 1000.2
20260508175003 58 287 1.0 3.0 0.00 0.00 0.00 41 999.8
20260508174003 57 233 2.0 7.0 0.00 0.00 0.00 42 999.8
20260508173004 57 292 2.0 8.0 0.00 0.00 0.00 45 1000.2
20260508172004 56 294 2.0 6.0 0.00 0.00 0.00 39 1000.2
20260508171004 56 280 4.0 9.0 0.00 0.00 0.00 40 1000.2
20260508170004 56 297 1.0 3.0 0.00 0.00 0.00 42 1000.2
20260508165004 57 297 1.0 3.0 0.00 0.00 0.00 42 999.8
20260508164003 56 306 2.0 7.0 0.00 0.00 0.00 40 1000.2
20260508163003 57 296 2.0 7.0 0.00 0.00 0.00 41 1000.2
20260508162003 57 316 3.0 9.0 0.00 0.01 0.00 45 1000.2
20260508161004 56 304 2.0 8.0 0.00 0.01 0.00 48 1000.5
20260508160004 55 249 1.0 4.0 0.00 0.01 0.00 50 1000.5
20260508155003 54 232 2.0 6.0 0.00 0.01 0.00 54 1000.5
20260508154004 53 259 2.0 4.0 0.00 0.01 0.00 58 1000.9
20260508153004 53 266 2.0 4.0 0.00 0.01 0.00 56 1000.9
20260508152004 53 249 2.0 4.0 0.00 0.01 0.00 59 1000.9
20260508151003 53 267 2.0 9.0 0.00 0.01 0.00 57 1000.9
20260508150004 52 298 1.0 4.0 0.00 0.01 0.00 61 1000.9
20260508145004 52 288 2.0 6.0 0.00 0.01 0.00 63 1000.9
20260508144003 52 276 2.0 6.0 0.00 0.01 0.00 60 1000.9
20260508143003 52 300 2.0 6.0 0.00 0.01 0.00 58 1000.9
20260508142003 53 309 2.0 6.0 0.00 0.01 0.00 60 1000.9
20260508141003 53 299 1.0 6.0 0.00 0.01 0.00 60 1000.9
20260508140004 54 281 2.0 8.0 0.00 0.01 0.00 58 1000.9
20260508135004 53 288 2.0 4.0 0.00 0.01 0.00 57 1000.9
20260508134004 53 282 2.0 6.0 0.00 0.01 0.00 61 1000.9
20260508133003 54 272 2.0 6.0 0.00 0.02 0.00 58 1000.9
20260508132003 56 308 1.0 6.0 0.00 0.03 0.00 55 1000.9
20260508131003 54 254 2.0 6.0 0.00 0.04 0.00 59 1000.9
20260508130004 53 281 2.0 4.0 0.00 0.04 0.00 63 1000.9
20260508125004 52 300 2.0 6.0 0.00 0.04 0.00 63 1001.2
20260508124003 53 263 1.0 3.0 0.00 0.04 0.00 62 1000.9
20260508123003 53 293 1.0 6.0 0.00 0.04 0.00 62 1000.9
20260508122003 52 290 2.0 7.0 0.00 0.04 0.00 65 1001.2
20260508121004 51 298 2.0 7.0 0.00 0.04 0.00 67 1001.2
20260508120004 51 309 2.0 6.0 0.00 0.04 0.00 67 1001.2
20260508115004 50 297 2.0 6.0 0.00 0.04 0.00 69 1001.2
20260508114003 51 275 1.0 4.0 0.00 0.04 0.00 71 1001.2
20260508113004 49 292 2.0 6.0 0.00 0.04 0.00 76 1001.2
20260508112004 49 282 2.0 7.0 0.00 0.04 0.00 76 1001.2
20260508111004 48 282 2.0 7.0 0.00 0.04 0.00 78 1000.9
20260508110003 47 285 2.0 7.0 0.00 0.04 0.00 81 1000.9
20260508105003 47 280 2.0 6.0 0.00 0.04 0.00 82 1000.9
20260508104003 47 271 1.0 7.0 0.00 0.04 0.00 83 1001.2
20260508103004 46 276 1.0 4.0 0.00 0.05 0.00 84 1000.9
20260508102003 45 273 1.0 3.0 0.00 0.06 0.00 87 1000.5
20260508101004 43 256 0.0 2.0 0.00 0.06 0.00 91 1000.5
20260508100004 42 251 0.0 1.0 0.00 0.06 0.00 91 1000.5
20260508095003 42 274 1.0 3.0 0.00 0.06 0.00 91 1000.5
20260508094004 42 280 1.0 3.0 0.00 0.06 0.00 90 1000.5
20260508093003 42 274 1.0 3.0 0.00 0.06 0.00 91 1000.5
20260508092003 42 271 0.0 2.0 0.00 0.06 0.00 91 1000.9
20260508091003 42 252 0.0 2.0 0.00 0.06 0.00 92 1000.2
20260508090004 42 247 0.0 1.0 0.00 0.06 0.00 92 1000.5
20260508085003 42 242 0.0 2.0 0.00 0.06 0.00 92 1000.2
20260508084004 42 235 0.0 1.0 0.00 0.06 0.00 91 1000.2
20260508083004 43 228 0.0 1.0 0.00 0.06 0.00 90 1000.2
20260508082004 43 221 0.0 1.0 0.00 0.06 0.00 91 1000.2
20260508081003 43 232 0.0 2.0 0.00 0.07 0.00 91 1000.5
20260508080003 43 269 0.0 1.0 0.00 0.07 0.00 91 1000.2
20260508075004 44 270 0.0 1.0 0.00 0.07 0.00 90 1000.2
20260508074003 44 266 0.0 2.0 0.00 0.07 0.00 89 1000.5
20260508073004 44 257 0.0 2.0 0.00 0.07 0.00 90 1000.5
20260508072004 44 266 0.0 1.0 0.00 0.07 0.00 89 1000.5
20260508071004 44 273 0.0 2.0 0.00 0.08 0.00 90 1000.5
20260508070004 44 274 1.0 3.0 0.00 0.08 0.00 90 1000.2
20260508065003 43 255 0.0 1.0 0.00 0.08 0.00 92 1000.2
20260508064003 42 0 0.0 0.0 0.00 0.08 0.00 92 1000.5